N92TH KATL-KBOS

Flight info

Callsign N92TH
Flight time N/A
Altitude 37000
Route PLMMR3 BURGG Q22 RBV Q419 JFK ROBUC3
Aircraft C750/M-SBDE3FGHRWXY/S

Departure

Time 2026-05-07 16:22
Airport Hartsfield Jackson Atlanta International Airport (KATL)

Arrival

Time N/A
Airport Boston Logan International Airport (KBOS)
Time Latitude Longitude Altitude Speed Heading
2026-05-07 16:08 33.65241 -84.42390 1003 ft 0 kts 207°
2026-05-07 16:15 33.65241 -84.42391 1003 ft 1 kts 210°
2026-05-07 16:15 33.65232 -84.42399 1003 ft 3 kts 220°
2026-05-07 16:15 33.65197 -84.42444 1003 ft 11 kts 233°
2026-05-07 16:16 33.65136 -84.42544 1003 ft 17 kts 239°
2026-05-07 16:16 33.65067 -84.42543 1003 ft 15 kts 99°
2026-05-07 16:16 33.65065 -84.42406 1004 ft 16 kts 92°
2026-05-07 16:16 33.65064 -84.42271 1003 ft 17 kts 91°
2026-05-07 16:17 33.65063 -84.42139 1003 ft 17 kts 88°
2026-05-07 16:17 33.65064 -84.42020 1003 ft 2 kts 89°
2026-05-07 16:17 33.65064 -84.42013 1003 ft 6 kts 89°
2026-05-07 16:17 33.65064 -84.41897 1003 ft 22 kts 90°
2026-05-07 16:18 33.65064 -84.41676 1002 ft 30 kts 90°
2026-05-07 16:18 33.65101 -84.41489 1003 ft 22 kts 64°
2026-05-07 16:18 33.65120 -84.41296 1003 ft 25 kts 89°
2026-05-07 16:18 33.65119 -84.41094 1003 ft 18 kts 90°
2026-05-07 16:19 33.65098 -84.40977 1003 ft 12 kts 137°
2026-05-07 16:19 33.65041 -84.40962 1003 ft 0 kts 180°
2026-05-07 16:20 33.65040 -84.40962 1003 ft 0 kts 180°
2026-05-07 16:20 33.65039 -84.40962 1003 ft 0 kts 180°
2026-05-07 16:20 33.65002 -84.40964 1003 ft 11 kts 184°
2026-05-07 16:21 33.64954 -84.41034 1003 ft 4 kts 272°
2026-05-07 16:21 33.64954 -84.41084 1003 ft 28 kts 270°
2026-05-07 16:21 33.64954 -84.41790 1005 ft 136 kts 270°
2026-05-07 16:21 33.64959 -84.42997 1472 ft 156 kts 271°
2026-05-07 16:22 33.64949 -84.44379 2123 ft 172 kts 269°
2026-05-07 16:22 33.64972 -84.45845 2916 ft 181 kts 280°
2026-05-07 16:22 33.65447 -84.47279 3726 ft 191 kts 294°
2026-05-07 16:22 33.66005 -84.48833 4396 ft 214 kts 292°
2026-05-07 16:23 33.66605 -84.50572 5045 ft 238 kts 292°
2026-05-07 16:23 33.67282 -84.52491 5634 ft 262 kts 293°
2026-05-07 16:23 33.68015 -84.54548 6512 ft 269 kts 293°
2026-05-07 16:23 33.68903 -84.56538 7480 ft 276 kts 309°
2026-05-07 16:24 33.70483 -84.57844 8563 ft 279 kts 337°
2026-05-07 16:24 33.72400 -84.58204 9615 ft 282 kts 358°
2026-05-07 16:24 33.74385 -84.58169 10534 ft 287 kts
2026-05-07 16:24 33.76396 -84.58113 11401 ft 291 kts
2026-05-07 16:25 33.78410 -84.57707 12106 ft 300 kts 22°
2026-05-07 16:25 33.80108 -84.56219 12725 ft 313 kts 47°
2026-05-07 16:25 33.81172 -84.53817 12743 ft 344 kts 75°
2026-05-07 16:25 33.81397 -84.50902 12920 ft 363 kts 90°
2026-05-07 16:26 33.81298 -84.47873 13723 ft 363 kts 93°
2026-05-07 16:26 33.81172 -84.44817 14366 ft 368 kts 91°
2026-05-07 16:26 33.81203 -84.41720 15025 ft 372 kts 88°
2026-05-07 16:26 33.81274 -84.39614 15456 ft 375 kts 88°
2026-05-07 16:27 33.81327 -84.35437 16327 ft 379 kts 90°
2026-05-07 16:27 33.81587 -84.32270 16853 ft 384 kts 79°
2026-05-07 16:27 33.82168 -84.29127 17565 ft 387 kts 77°
2026-05-07 16:27 33.82787 -84.25962 18224 ft 391 kts 77°
2026-05-07 16:28 33.83367 -84.22753 18893 ft 395 kts 78°
2026-05-07 16:28 33.83930 -84.19505 19565 ft 399 kts 78°
2026-05-07 16:28 33.84520 -84.16231 20243 ft 403 kts 77°
2026-05-07 16:28 33.84925 -84.14043 20683 ft 405 kts 77°
2026-05-07 16:29 33.85533 -84.10714 21336 ft 409 kts 77°
2026-05-07 16:29 33.86330 -84.06241 22176 ft 414 kts 78°
2026-05-07 16:29 33.86938 -84.02839 22783 ft 418 kts 78°
2026-05-07 16:29 33.87558 -83.99397 23380 ft 422 kts 78°
2026-05-07 16:30 33.87977 -83.97073 23780 ft 425 kts 78°
2026-05-07 16:30 33.88597 -83.93603 24349 ft 429 kts 78°
2026-05-07 16:30 33.89282 -83.90096 24863 ft 433 kts 73°
2026-05-07 16:30 33.90417 -83.86728 25392 ft 436 kts 66°
2026-05-07 16:31 33.91609 -83.83363 25952 ft 439 kts 67°
2026-05-07 16:31 33.92776 -83.79947 26476 ft 443 kts 68°
2026-05-07 16:31 33.93951 -83.76508 27002 ft 446 kts 67°
2026-05-07 16:31 33.95233 -83.73085 27466 ft 450 kts 62°
2026-05-07 16:32 33.96972 -83.69932 27986 ft 453 kts 53°
2026-05-07 16:32 33.98871 -83.66883 28493 ft 456 kts 53°
2026-05-07 16:32 34.00772 -83.63796 28999 ft 460 kts 53°
2026-05-07 16:32 34.02670 -83.60682 29481 ft 463 kts 53°
2026-05-07 16:33 34.04591 -83.57542 29952 ft 467 kts 53°
2026-05-07 16:33 34.06534 -83.54383 30404 ft 470 kts 53°
2026-05-07 16:33 34.08462 -83.51242 30839 ft 473 kts 53°
2026-05-07 16:33 34.10417 -83.48043 31432 ft 472 kts 53°
2026-05-07 16:34 34.12359 -83.44860 32094 ft 470 kts 53°
2026-05-07 16:34 34.14299 -83.41686 32689 ft 469 kts 53°
2026-05-07 16:34 34.16234 -83.38518 33294 ft 468 kts 53°
2026-05-07 16:34 34.18162 -83.35357 33895 ft 467 kts 53°
2026-05-07 16:35 34.20083 -83.32200 34489 ft 466 kts 53°
2026-05-07 16:35 34.22001 -83.29049 35079 ft 464 kts 53°
2026-05-07 16:35 34.23912 -83.25907 35691 ft 463 kts 53°
2026-05-07 16:35 34.25815 -83.22775 36284 ft 462 kts 53°
2026-05-07 16:36 34.27706 -83.19659 36828 ft 457 kts 53°
2026-05-07 16:36 34.29602 -83.16533 36992 ft 467 kts 53°
2026-05-07 16:36 34.31545 -83.13324 36995 ft 479 kts 53°
2026-05-07 16:37 34.35596 -83.06724 37007 ft 493 kts 53°
2026-05-07 16:37 34.39693 -83.00021 37011 ft 496 kts 53°
2026-05-07 16:38 34.43794 -82.93295 37009 ft 497 kts 53°
2026-05-07 16:38 34.47872 -82.86602 37011 ft 496 kts 53°
2026-05-07 16:39 34.51969 -82.79859 37010 ft 496 kts 53°
2026-05-07 16:39 34.56059 -82.73119 37008 ft 497 kts 53°
2026-05-07 16:40 34.60148 -82.66364 37007 ft 497 kts 53°
2026-05-07 16:40 34.64238 -82.59597 37012 ft 497 kts 53°
2026-05-07 16:41 34.68310 -82.52819 37010 ft 497 kts 54°
2026-05-07 16:41 34.72299 -82.45953 37011 ft 497 kts 54°
2026-05-07 16:42 34.76309 -82.39161 37009 ft 497 kts 54°
2026-05-07 16:42 34.80310 -82.32303 37008 ft 497 kts 54°
2026-05-07 16:43 34.84320 -82.25448 37006 ft 497 kts 54°
2026-05-07 16:43 34.88326 -82.18575 37008 ft 497 kts 54°
2026-05-07 16:44 34.92322 -82.11708 37010 ft 497 kts 54°
2026-05-07 16:44 34.96314 -82.04837 37010 ft 497 kts 54°
2026-05-07 16:45 35.00304 -81.97953 37008 ft 497 kts 54°
2026-05-07 16:45 35.04329 -81.91110 37003 ft 497 kts 52°
2026-05-07 16:46 35.08514 -81.84387 37004 ft 497 kts 53°
2026-05-07 16:46 35.12679 -81.77650 37005 ft 497 kts 53°
2026-05-07 16:47 35.16829 -81.70954 37006 ft 497 kts 53°
2026-05-07 16:47 35.20991 -81.64204 37006 ft 496 kts 53°
2026-05-07 16:48 35.25152 -81.57456 37006 ft 497 kts 53°
2026-05-07 16:48 35.29305 -81.50701 37007 ft 497 kts 53°
2026-05-07 16:49 35.33460 -81.43933 37008 ft 497 kts 53°
2026-05-07 16:49 35.37608 -81.37163 37006 ft 500 kts 53°
2026-05-07 16:50 35.41814 -81.30281 37011 ft 506 kts 53°
2026-05-07 16:50 35.45543 -81.24173 37010 ft 508 kts 53°
2026-05-07 16:51 35.49743 -81.17278 37010 ft 508 kts 53°
2026-05-07 16:51 35.53974 -81.10319 37008 ft 509 kts 53°
2026-05-07 16:52 35.58205 -81.03347 37008 ft 508 kts 53°
2026-05-07 16:52 35.62425 -80.96377 37007 ft 508 kts 53°
2026-05-07 16:53 35.66641 -80.89400 37006 ft 508 kts 53°
2026-05-07 16:53 35.70853 -80.82417 37007 ft 508 kts 53°
2026-05-07 16:54 35.75060 -80.75426 37010 ft 508 kts 53°
2026-05-07 16:54 35.79265 -80.68426 37011 ft 508 kts 53°
2026-05-07 16:55 35.83466 -80.61419 37009 ft 508 kts 53°
2026-05-07 16:55 35.87660 -80.54407 37010 ft 508 kts 53°
2026-05-07 16:56 35.91850 -80.47389 37004 ft 508 kts 53°
2026-05-07 16:56 35.98126 -80.36850 37005 ft 508 kts 53°
2026-05-07 16:57 36.02302 -80.29850 37003 ft 508 kts 53°
2026-05-07 16:57 36.06491 -80.22803 37004 ft 508 kts 53°
2026-05-07 16:58 36.10679 -80.15749 37007 ft 508 kts 53°
2026-05-07 16:58 36.14856 -80.08698 37008 ft 509 kts 53°
2026-05-07 16:59 36.19038 -80.01621 37007 ft 508 kts 53°
2026-05-07 16:59 36.23211 -79.94551 37006 ft 508 kts 53°
2026-05-07 17:00 36.27379 -79.87471 37009 ft 508 kts 54°
2026-05-07 17:00 36.31539 -79.80393 37009 ft 508 kts 54°
2026-05-07 17:01 36.35701 -79.73293 37008 ft 508 kts 54°
2026-05-07 17:01 36.39829 -79.66240 37008 ft 508 kts 54°
2026-05-07 17:02 36.43980 -79.59132 37009 ft 508 kts 54°
2026-05-07 17:02 36.48120 -79.52027 37010 ft 508 kts 54°
2026-05-07 17:03 36.52259 -79.44910 37009 ft 508 kts 54°
2026-05-07 17:03 36.56393 -79.37786 37008 ft 507 kts 54°
2026-05-07 17:04 36.60526 -79.30650 37009 ft 508 kts 54°
2026-05-07 17:04 36.64652 -79.23508 37010 ft 508 kts 54°
2026-05-07 17:05 36.68743 -79.16414 37009 ft 508 kts 54°
2026-05-07 17:05 36.72856 -79.09268 37005 ft 508 kts 54°
2026-05-07 17:06 36.76969 -79.02104 37004 ft 508 kts 54°
2026-05-07 17:06 36.81074 -78.94941 37006 ft 507 kts 54°
2026-05-07 17:07 36.85169 -78.87760 37009 ft 508 kts 54°
2026-05-07 17:07 36.89236 -78.80558 37008 ft 508 kts 54°
2026-05-07 17:08 36.93316 -78.73356 37007 ft 507 kts 54°
2026-05-07 17:08 36.97378 -78.66147 37008 ft 507 kts 54°
2026-05-07 17:09 37.01450 -78.58919 37009 ft 508 kts 54°
2026-05-07 17:09 37.05508 -78.51690 37006 ft 508 kts 54°
2026-05-07 17:10 37.09566 -78.44452 37010 ft 508 kts 54°
2026-05-07 17:10 37.13593 -78.37251 37009 ft 508 kts 55°
2026-05-07 17:11 37.17639 -78.30003 37007 ft 507 kts 55°
2026-05-07 17:11 37.21488 -78.22582 36994 ft 508 kts 60°
2026-05-07 17:12 37.24856 -78.14791 36996 ft 508 kts 61°
2026-05-07 17:12 37.28333 -78.07079 36998 ft 507 kts 60°
2026-05-07 17:13 37.31735 -77.99320 36998 ft 507 kts 61°
2026-05-07 17:13 37.35170 -77.91574 36994 ft 507 kts 60°
2026-05-07 17:14 37.38583 -77.83812 36996 ft 507 kts 61°
2026-05-07 17:14 37.41994 -77.76047 36998 ft 507 kts 61°
2026-05-07 17:15 37.45400 -77.68278 37000 ft 507 kts 61°
2026-05-07 17:15 37.48775 -77.60552 36999 ft 507 kts 61°
2026-05-07 17:16 37.52179 -77.52754 36998 ft 507 kts 61°
2026-05-07 17:16 37.55565 -77.44967 36996 ft 507 kts 61°
2026-05-07 17:17 37.58953 -77.37164 36996 ft 507 kts 61°
2026-05-07 17:17 37.61762 -77.30675 36996 ft 507 kts 61°
2026-05-07 17:18 37.65137 -77.22866 36997 ft 507 kts 61°
2026-05-07 17:18 37.68831 -77.15315 36992 ft 506 kts 51°
2026-05-07 17:19 37.74017 -77.09340 36991 ft 506 kts 34°
2026-05-07 17:19 37.80257 -77.05249 37004 ft 506 kts 24°
2026-05-07 17:20 37.86609 -77.01520 37004 ft 506 kts 28°
2026-05-07 17:20 37.92664 -76.96969 37005 ft 506 kts 30°
2026-05-07 17:21 37.98886 -76.92805 37004 ft 506 kts 27°
2026-05-07 17:21 38.05029 -76.88448 37004 ft 506 kts 30°
2026-05-07 17:22 38.11207 -76.84163 37004 ft 506 kts 28°
2026-05-07 17:22 38.17382 -76.79843 37003 ft 506 kts 29°
2026-05-07 17:23 38.23203 -76.75740 37002 ft 505 kts 29°
2026-05-07 17:23 38.28829 -76.70371 36996 ft 506 kts 41°
2026-05-07 17:24 38.34062 -76.64450 37004 ft 506 kts 39°
2026-05-07 17:24 38.39504 -76.58755 37006 ft 506 kts 40°
2026-05-07 17:25 38.44826 -76.52861 37005 ft 506 kts 40°
2026-05-07 17:25 38.50266 -76.47147 37004 ft 506 kts 39°
2026-05-07 17:26 38.55620 -76.41310 37004 ft 506 kts 40°
2026-05-07 17:26 38.61020 -76.35537 37005 ft 506 kts 40°
2026-05-07 17:27 38.66391 -76.29712 37004 ft 506 kts 40°
2026-05-07 17:27 38.71770 -76.23903 37003 ft 506 kts 40°
2026-05-07 17:28 38.77142 -76.18074 37003 ft 506 kts 40°
2026-05-07 17:28 38.82513 -76.12240 37004 ft 506 kts 40°
2026-05-07 17:29 38.87884 -76.06393 37005 ft 506 kts 40°
2026-05-07 17:29 38.93251 -76.00537 37005 ft 506 kts 40°
2026-05-07 17:30 38.98526 -75.94544 37002 ft 506 kts 43°
2026-05-07 17:30 39.03654 -75.88424 37003 ft 506 kts 43°
2026-05-07 17:31 39.08827 -75.82275 37007 ft 506 kts 43°
2026-05-07 17:31 39.13990 -75.76095 37005 ft 506 kts 43°
2026-05-07 17:32 39.19155 -75.69921 37005 ft 506 kts 43°
2026-05-07 17:32 39.24312 -75.63730 37003 ft 506 kts 43°
2026-05-07 17:33 39.29465 -75.57538 37003 ft 506 kts 43°
2026-05-07 17:33 39.34619 -75.51327 37005 ft 506 kts 43°
2026-05-07 17:34 39.39738 -75.45150 37006 ft 506 kts 43°
2026-05-07 17:34 39.44879 -75.38930 37007 ft 506 kts 43°
2026-05-07 17:35 39.50022 -75.32693 37007 ft 506 kts 43°
2026-05-07 17:35 39.55161 -75.26450 37008 ft 506 kts 43°
2026-05-07 17:36 39.60297 -75.20195 37010 ft 506 kts 43°
2026-05-07 17:36 39.65431 -75.13933 37010 ft 506 kts 43°
2026-05-07 17:37 39.70668 -75.07822 37005 ft 507 kts 40°
2026-05-07 17:37 39.76021 -75.01831 37007 ft 506 kts 41°
2026-05-07 17:38 39.81306 -74.95852 37008 ft 506 kts 41°
2026-05-07 17:38 39.86630 -74.89839 37008 ft 506 kts 41°
2026-05-07 17:39 39.92082 -74.84036 36994 ft 506 kts 35°
2026-05-07 17:39 39.97881 -74.78836 36997 ft 506 kts 34°
2026-05-07 17:40 40.03547 -74.73392 36985 ft 506 kts 40°
2026-05-07 17:40 40.08361 -74.66696 36996 ft 506 kts 50°
2026-05-07 17:41 40.13049 -74.59818 37004 ft 506 kts 46°
2026-05-07 17:41 40.17830 -74.53047 37006 ft 507 kts 48°
2026-05-07 17:42 40.22785 -74.46597 36993 ft 506 kts 39°
2026-05-07 17:42 40.28365 -74.40963 36996 ft 506 kts 38°
2026-05-07 17:43 40.33746 -74.35004 36997 ft 506 kts 39°
2026-05-07 17:43 40.39203 -74.29272 36999 ft 506 kts 38°
2026-05-07 17:44 40.44628 -74.23380 37000 ft 506 kts 39°
2026-05-07 17:44 40.50086 -74.17534 37000 ft 506 kts 39°
2026-05-07 17:45 40.54912 -74.10845 36993 ft 506 kts 54°
2026-05-07 17:45 40.58011 -74.02557 36994 ft 507 kts 72°
2026-05-07 17:46 40.59663 -73.93548 37006 ft 507 kts 78°
2026-05-07 17:46 40.61397 -73.84617 37004 ft 507 kts 72°
2026-05-07 17:47 40.64177 -73.76134 36981 ft 499 kts 59°
2026-05-07 17:47 40.66119 -73.72542 36783 ft 469 kts 50°
2026-05-07 17:47 40.68297 -73.69415 36384 ft 458 kts 45°
2026-05-07 17:48 40.70572 -73.66463 35935 ft 459 kts 44°
2026-05-07 17:48 40.72810 -73.63445 35480 ft 461 kts 47°